Retour au catalogue

STARLINK-35506

ActifCommunicationsVLEO
NORAD 66324·PAYLOAD·🇺🇸 United States

Lancé Nov 6, 2025 depuis Cape Canaveral Space Force Station

Loading…

Prochains Passages (prochaines 24 heures)

TLE

FraisSource: CelesTrak SupGP

Époque: Sep 14, 2026, 15:37 UTC

1 66324C 25253F   26257.65118056 -.00021447  00000+0 -77715-3 0  2578
2 66324  43.0024 225.0157 0000868 256.8057 244.6750 15.27575082    14

Suivez STARLINK-35506 en temps réel avec AllMySat

Download on the App Store